Content
SEND FEEDBACK

Daily
Averages
Monthly
Summary
Philippines

QUEZON CITY, PHILIPPINES


Home > Asia > Philippines
Elevation: 46 meters     Latitude: 14 39N     Longitude: 121 03E

WEATHER
 
SELECT A DAY
Number of Records: 172,482;   Date Range: 7/1/96 - 7/26/14
 
SHARE

PRINT THIS DATA

[ ← Previous Day ]
WEATHER ALMANAC - 6 MAY, 2013
[ Next Day → ]
[ °F ]   °C
Weather ElementAverageHighLow
Temperature31.3 °C35 °C (2:00 pm)27.8 °C (5:00 am)
Dewpoint22.2 °C24 °C (1:00 am)19 °C (5:00 pm)
Humidity57.2 %74 % (1:00 am)31 % (5:00 pm)
Barometer1008.8 hPa1011.2 hPa (10:00 am)1006.1 hPa (3:00 pm)
Wind Speed12.2 km/h18.5 km/h (5:00 pm)
Weather ElementAverage
Visibility9.8 km
Wind DirectionESE (100 °)

Weather ElementTotal
Precipitation---
Cooling Degree Days13.1 (Base 18.3)
Growing Degree Days21.4 (Base 10)
Averaged from 31 records on 6 May, 2013
WEATHER CONDITIONS BREAKOUT
WIND DIRECTION BREAKOUT
WEATHER BY HOUR - 6 MAY, 2013
[ °F ]   °C
Local TimeTemperatureDewpointHumidityBarometerVisibilityWind DirectionWind SpeedGust SpeedPrecipitationEventsConditions
1:00 AM29 °C24 °C74 %1010.2 hPa10 kmESE (110°)14.8 km/hPartly Cloudy
2:00 AM28.9 °C23.9 °C67 %1009.8 hPa9.7 kmESE (110°)7.2 km/hHaze
2:00 AM29 °C24 °C74 %1009.1 hPa10 kmESE (110°)7.4 km/hPartly Cloudy
3:00 AM28 °C23 °C74 %1009.1 hPa10 kmEast (80°)11.1 km/hPartly Cloudy
4:00 AM28 °C23 °C74 %1009.1 hPa10 kmEast (90°)5.6 km/hPartly Cloudy
5:00 AM27.8 °C23.3 °C69 %1009.1 hPa9.7 kmESE (110°)3.5 km/hHaze
5:00 AM28 °C23 °C74 %1009.1 hPa10 kmESE (110°)5.6 km/hPartly Cloudy
6:00 AM28 °C23 °C74 %1009.1 hPa10 kmEast (100°)5.6 km/hPartly Cloudy
7:00 AM29 °C23 °C70 %1010.2 hPa10 kmENE (60°)13 km/hPartly Cloudy
8:00 AM30.6 °C22.8 °C56 %1010.8 hPa9.7 kmEast (90°)7.2 km/hHaze
8:00 AM31 °C23 °C62 %1010.2 hPa10 kmEast (90°)9.3 km/hPartly Cloudy
9:00 AM32 °C22 °C55 %1010.2 hPa10 kmESE (110°)11.1 km/hPartly Cloudy
10:00 AM31 °C22 °C58 %1011.2 hPa10 kmEast (90°)14.8 km/hPartly Cloudy
11:00 AM33.3 °C23.3 °C47 %1010.5 hPa9.7 kmEast (100°)10.8 km/hHaze
11:00 AM32 °C22 °C55 %1010.2 hPa10 kmESE (110°)11.1 km/hPartly Cloudy
12:00 PM34 °C22 °C49 %1009.1 hPa10 kmVariable16.7 km/hScattered Clouds
1:00 PM34 °C23 °C52 %1008.1 hPa10 kmSE (140°)14.8 km/hPartly Cloudy
2:00 PM35 °C22.8 °C40 %1007.8 hPa9.7 kmSSE (160°)14.3 km/hPartly Cloudy
2:00 PM35 °C23 °C49 %1007.1 hPa10 kmSSE (160°)13 km/hPartly Cloudy
3:00 PM35 °C23 °C49 %1006.1 hPa10 kmVariable16.7 km/hPartly Cloudy
4:00 PM35 °C21 °C44 %1006.1 hPa10 kmESE (120°)16.7 km/hPartly Cloudy
5:00 PM34.4 °C19.4 °C31 %1007.1 hPa9.7 kmESE (120°)18 km/hPartly Cloudy
5:00 PM35 °C19 °C39 %1006.1 hPa10 kmESE (120°)18.5 km/hPartly Cloudy
6:00 PM33 °C20 °C46 %1007.1 hPa10 kmESE (110°)16.7 km/hPartly Cloudy
7:00 PM32 °C20 °C49 %1008.1 hPa10 kmEast (80°)14.8 km/hPartly Cloudy
8:00 PM31.1 °C20.6 °C43 %1007.8 hPa9.7 kmEast (80°)18 km/hPartly Cloudy
8:00 PM31 °C21 °C55 %1008.1 hPa10 kmEast (80°)16.7 km/hPartly Cloudy
9:00 PM31 °C20 °C52 %1009.1 hPa10 kmEast (100°)13 km/hPartly Cloudy
10:00 PM30 °C22 °C62 %1010.2 hPa10 kmESE (120°)11.1 km/hPartly Cloudy
11:00 PM29.4 °C22.8 °C60 %1009.5 hPa9.7 kmESE (120°)10.8 km/hScattered Clouds
11:00 PM29 °C23 °C70 %1009.1 hPa10 kmESE (120°)11.1 km/hPartly Cloudy
Hourly data recorded from RPLL, located 0 kilometers away from Quezon City, Philippines







STORIES FROM OUR PARTNERS